Flight Track Log - Related Links

Times and Time Zones

All times are in EDT time to prevent confusion due to time zone crossing. See the SWA378 flight status page for this flight to view local times or setup timezone preferences in your user account.

Time Position Orientation Groundspeed Altitude Reporting Facility
EDT Latitude Longitude Course Direction KTS MPH feet Rate Location/Type
11:36AM 37.4000 -121.9667 22° Northeast 165 190 2,200  Level Northern Cal TRACON
11:37AM 37.4333 -121.9500 22° Northeast 234 269 4,800 1,400 Climbing Northern Cal TRACON
11:38AM 37.4000 -121.8833 122° Southeast 271 312 5,000 1,075 Climbing Northern Cal TRACON
11:39AM 37.3625 -121.8256 129° Southeast 275 316 6,700 2,972 Climbing Oakland Center
11:40AM 37.3094 -121.7664 138° Southeast 290 334 10,300 3,148 Climbing Oakland Center
11:41AM 37.2417 -121.6858 137° Southeast 342 394 13,100 3,317 Climbing Oakland Center
11:42AM 37.1528 -121.5858 138° Southeast 362 417 17,100 3,268 Climbing Oakland Center
11:43AM 37.0758 -121.5047 140° Southeast 384 442 19,800 2,732 Climbing Oakland Center
11:44AM 36.9925 -121.4100 138° Southeast 402 463 22,700 2,634 Climbing Oakland Center
11:45AM 36.9042 -121.3158 140° Southeast 418 481 25,200 2,244 Climbing Oakland Center
11:46AM 36.8147 -121.2211 140° Southeast 433 498 27,300 2,244 Climbing Oakland Center
11:47AM 36.7003 -121.1006 140° Southeast 446 513 29,800 2,115 Climbing Oakland Center
11:48AM 36.6028 -120.9972 140° Southeast 456 525 31,600 1,854 Climbing Oakland Center
11:49AM 36.5036 -120.8958 141° Southeast 461 531 33,600 1,854 Climbing Oakland Center
11:50AM 36.4053 -120.7936 140° Southeast 459 528 35,400 1,707 Climbing Oakland Center
11:51AM 36.3072 -120.6906 140° Southeast 460 529 37,100 1,561 Climbing Oakland Center
11:52AM 36.2075 -120.5928 142° Southeast 457 526 38,600 878 Climbing Oakland Center
11:53AM 36.1097 -120.4947 141° Southeast 451 519 38,900 146 Climbing Oakland Center
11:54AM 36.0117 -120.3939 140° Southeast 459 528 38,900  Level Oakland Center
11:55AM 35.9147 -120.2967 141° Southeast 443 510 38,900  Level Oakland Center
11:56AM 35.7978 -120.1792 141° Southeast 447 514 38,900  Level Oakland Center
11:57AM 35.6994 -120.0814 141° Southeast 449 517 38,900  Level Oakland Center
11:58AM 35.6014 -119.9825 141° Southeast 450 518 38,900  Level Oakland Center
11:59AM 35.5025 -119.8847 141° Southeast 453 521 38,900 -390 Level Oakland Center
12:00PM 35.4047 -119.7875 141° Southeast 451 519 38,100 -829 Descending Oakland Center
12:01PM 35.3067 -119.6903 141° Southeast 452 520 37,200 -927 Descending Oakland Center
12:02PM 35.2058 -119.5975 143° Southeast 453 521 36,200 -1,171 Descending Oakland Center
12:03PM 35.1017 -119.5097 145° Southeast 453 521 34,800 -2,195 Descending Oakland Center
12:04PM 34.9978 -119.4214 145° Southeast 454 522 31,700 -2,683 Descending Oakland Center
12:05PM 34.8944 -119.3342 145° Southeast 454 522 29,300 -2,361 Descending Oakland Center
12:06PM 34.7953 -119.2486 145° Southeast 445 512 26,900 -2,195 Descending Oakland Center
12:07PM 34.6792 -119.1517 146° Southeast 432 497 24,800 -2,182 Descending Oakland Center
12:08PM 34.6597 -119.1367 148° Southeast 422 486 24,100 -1,870 Descending Los Angeles Center
12:09PM 34.5722 -119.0614 145° Southeast 422 486 22,400 -2,419 Descending Los Angeles Center
12:10PM 34.4608 -118.9686 146° Southeast 409 471 19,100 -2,855 Descending Los Angeles Center
12:11PM 34.3697 -118.8919 145° Southeast 406 467 16,500 -2,323 Descending Los Angeles Center
12:12PM 34.2731 -118.8514 161° South 371 427 14,300 -2,081 Descending Los Angeles Center
12:13PM 34.1794 -118.8161 163° South 354 407 12,200 -1,694 Descending Los Angeles Center
12:14PM 34.0892 -118.7606 153° Southeast 339 390 10,800 -1,065 Descending Los Angeles Center
12:15PM 34.0617 -118.6494 107° East 320 368 10,000 -919 Descending Los Angeles Center
12:16PM 34.0364 -118.5567 108° East 294 338 8,900 -1,358 Descending Los Angeles Center
12:17PM 34.0119 -118.4494 105° East 269 310 6,900 -1,664 Descending Los Angeles Center
12:18PM 34.0181 -118.3575 85° East 273 314 5,100 -1,355 Descending Los Angeles Center
12:19PM 34.0236 -118.2667 86° East 273 314 4,100 -581 Descending Los Angeles Center
12:20PM 34.0103 -118.2061 105° East 211 243 3,900 -726 Descending Los Angeles Center
12:21PM 33.9700 -118.2336 210° Southwest 197 227 2,600 -1,065 Descending Los Angeles Center
12:22PM 33.9628 -118.3056 263° West 187 215 1,700 -816 Descending Los Angeles Center
12:23PM 33.9578 -118.3556 263° West 167 192 900 -720 Descending Los Angeles Center
12:24PM 33.9522 -118.4008 262° West 147 169 200 -677 Descending Los Angeles Center
12:26PM 33.9425 -118.4081 248° West  Level Estimated
12:33PM 33.9425 -118.4081 248° West  Level Estimated

Login

Don't have an account? Register now (free) for customized features, flight alerts, and more!